EW0159 Weather Reports


Display with metric or nautical units.
time (UTC)temp
F
wind
direction
speed
MPH
gust
MPH
rain 1hr
in
rain 24hr
in
rain mn
in
humidity
%
barometer
mb
20260506211520 65 139 1.0 8.0 0.00 0.00 0.00 75 1020.3
20260506210016 65 32 4.0 9.0 0.00 0.00 0.00 75 1020.4
20260506204511 65 171 3.0 6.0 0.00 0.00 0.00 76 1020.5
20260506203011 65 89 1.0 3.0 0.00 0.00 0.00 75 1020.5
20260506201510 65 123 3.0 5.0 0.00 0.00 0.00 75 1020.4
20260506200007 65 50 1.0 6.0 0.00 0.00 0.00 76 1020.5
20260506194506 64 173 3.0 5.0 0.00 0.00 0.00 77 1020.5
20260506193003 63 67 0.0 4.0 0.00 0.00 0.00 76 1020.6
20260506191502 63 165 2.0 5.0 0.00 0.00 0.00 79 1020.8
20260506190001 62 163 2.0 5.0 0.00 0.00 0.00 79 1020.8
20260506184559 62 317 1.0 3.0 0.00 0.00 0.00 80 1020.8
20260506183056 60 226 1.0 3.0 0.00 0.00 0.00 81 1020.8
20260506181558 60 139 0.0 3.0 0.00 0.00 0.00 80 1020.8
20260506180053 60 109 2.0 7.0 0.00 0.00 0.00 81 1020.6
20260506174550 59 186 2.0 4.0 0.00 0.00 0.00 82 1020.7
20260506173122 59 161 2.0 4.0 0.00 0.00 0.00 82 1020.7
20260506171545 58 148 1.0 4.0 0.00 0.00 0.00 82 1020.6
20260506170044 58 170 0.0 3.0 0.00 0.00 0.00 82 1020.7
20260506164541 58 172 2.0 4.0 0.00 0.00 0.00 82 1020.6
20260506163040 57 180 2.0 4.0 0.00 0.00 0.00 82 1020.6
20260506161537 57 163 0.0 2.0 0.00 0.00 0.00 82 1020.8
20260506160035 57 142 0.0 3.0 0.00 0.00 0.00 82 1020.8
20260506154533 57 179 2.0 4.0 0.00 0.00 0.00 82 1020.3
20260506153031 57 200 3.0 6.0 0.00 0.00 0.00 82 1020.0
20260506151531 57 130 3.0 6.0 0.00 0.00 0.00 82 1019.9
20260506150029 56 166 1.0 3.0 0.00 0.00 0.00 81 1020.2
20260506144533 56 210 1.0 2.0 0.00 0.00 0.00 80 1020.5
20260506143027 56 210 0.0 1.0 0.00 0.00 0.00 80 1020.4
20260506141529 55 210 0.0 1.0 0.00 0.00 0.00 79 1020.1
20260506140023 55 210 0.0 2.0 0.00 0.00 0.00 79 1019.9
20260506134521 55 210 0.0 2.0 0.00 0.00 0.00 78 1019.5
20260506133021 55 210 0.0 0.0 0.00 0.00 0.00 77 1019.7
20260506131529 55 210 0.0 0.0 0.00 0.00 0.00 77 1019.6
20260506130016 55 210 0.0 0.0 0.00 0.00 0.00 77 1019.4
20260506124514 55 210 0.0 0.0 0.00 0.00 0.00 78 1019.1
20260506123014 55 210 0.0 0.0 0.00 0.00 0.00 78 1019.0
20260506121513 55 210 0.0 0.0 0.00 0.00 0.00 78 1018.9
20260506120017 55 210 0.0 0.0 0.00 0.00 0.00 78 1019.0
20260506114509 56 210 0.0 0.0 0.00 0.00 0.00 79 1018.9
20260506113009 56 210 0.0 0.0 0.00 0.00 0.00 78 1018.9
20260506111507 56 210 0.0 0.0 0.00 0.00 0.00 78 1018.7
20260506110006 56 180 0.0 1.0 0.00 0.00 0.00 79 1018.6
20260506104504 56 16 0.0 1.0 0.00 0.00 0.00 78 1018.4
20260506103003 56 16 0.0 0.0 0.00 0.00 0.00 78 1018.2
20260506101501 56 16 0.0 0.0 0.00 0.00 0.00 79 1018.0
20260506100120 56 16 0.0 0.0 0.00 0.00 0.00 79 1017.9
20260506094558 56 16 0.0 0.0 0.00 0.00 0.00 79 1017.8
20260506093057 56 16 0.0 1.0 0.00 0.00 0.00 79 1017.6
20260506091556 56 16 0.0 1.0 0.00 0.00 0.00 78 1017.6
20260506090054 56 16 0.0 0.0 0.00 0.00 0.00 79 1017.6
20260506084620 56 16 0.0 1.0 0.00 0.00 0.00 79 1017.6
20260506083054 56 16 0.0 1.0 0.00 0.00 0.00 79 1017.6
20260506081555 56 59 0.0 1.0 0.00 0.00 0.00 79 1017.6
20260506073049 56 59 0.0 1.0 0.00 0.00 0.00 79 1017.2
20260506071545 56 59 0.0 1.0 0.00 0.00 0.00 80 1017.2
20260506061540 57 291 0.0 2.0 0.00 0.00 0.00 81 1016.8
20260506044620 58 96 0.0 1.0 0.00 0.00 0.00 81 1016.4
20260506043036 58 96 0.0 1.0 0.00 0.00 0.00 81 1016.3
20260506041536 58 96 0.0 1.0 0.00 0.00 0.00 81 1016.1
20260506040035 58 45 0.0 1.0 0.00 0.00 0.00 82 1015.9
20260506034601 58 45 0.0 2.0 0.00 0.00 0.00 82 1015.7
20260506033036 59 45 1.0 2.0 0.00 0.00 0.00 81 1015.5
20260506031533 60 45 0.0 3.0 0.00 0.00 0.00 80 1015.4
20260506030032 61 82 0.0 1.0 0.00 0.00 0.00 78 1015.3
20260506024532 62 82 0.0 2.0 0.00 0.00 0.00 76 1015.2
20260506023040 62 67 1.0 3.0 0.00 0.00 0.00 75 1015.1
20260506021533 63 86 0.0 3.0 0.00 0.00 0.00 74 1015.1
20260506020031 63 77 0.0 4.0 0.00 0.00 0.00 74 1015.0
20260506014532 63 60 2.0 7.0 0.00 0.00 0.00 74 1015.0
20260506013030 64 142 2.0 6.0 0.00 0.00 0.00 74 1015.0
20260506011531 64 136 1.0 6.0 0.00 0.00 0.00 75 1015.2
20260506010029 64 134 1.0 5.0 0.00 0.00 0.00 75 1015.1
20260506004541 64 63 2.0 5.0 0.00 0.00 0.00 75 1015.1
20260506003041 64 66 1.0 7.0 0.00 0.00 0.00 74 1015.2
20260506001528 64 69 1.0 5.0 0.00 0.00 0.00 74 1015.2
20260506000027 65 84 0.0 4.0 0.00 0.00 0.00 73 1015.2
20260505234534 64 140 1.0 7.0 0.00 0.00 0.00 77 1015.4
20260505233022 63 172 3.0 6.0 0.00 0.00 0.00 77 1015.6
20260505231519 62 152 2.0 4.0 0.00 0.00 0.00 77 1015.7
20260505230017 61 207 0.0 4.0 0.00 0.00 0.00 78 1016.0
20260505224519 61 224 1.0 3.0 0.00 0.00 0.00 79 1016.0
20260505223016 61 167 1.0 2.0 0.00 0.00 0.00 78 1016.2
20260505221518 60 329 0.0 3.0 0.00 0.00 0.00 80 1016.3
20260505220023 60 343 2.0 5.0 0.00 0.00 0.00 78 1016.2
20260505214521 60 307 1.0 4.0 0.00 0.00 0.00 78 1016.3
20260505213012 60 334 0.0 3.0 0.00 0.00 0.00 79 1016.3